Location: Passau
(48.5721°N, 13.4363°E)
Time: 10:05:58
(UTC+01:00)

ISS - Pass Details

Date: 06 January 2018
Orbit: 402 x 407 km, 51.6° (Epoch: 21 January)

Event Time Altitude Azimuth Distance (km) Brightness Sun altitude
Exits shadow 06:45:58 19° 297° (WNW) 1,060 -2.4 -11.3°
Maximum altitude 06:48:08 51° 8° (N) 520 -3.4 -11.0°
Drops below altitude 10° 06:51:22 10° 86° (E) 1,470 0.1 -10.5°
Sets 06:53:29 0° 92° (E) 2,331 1.5 -10.2°
